7 * 24
多渠道服务支持
STARLINK-36686(NORAD编号68719)是SpaceX星链(Starlink)星座中的一颗低轨互联网通信卫星,隶属于SpaceX公司主导的星链卫星互联网项目。星链项目旨在构建全球覆盖的低轨卫星互联网系统,为全球提供低成本、高带宽的互联网接入服务。 该卫星运行于近地轨道,作为星链星座的组成部分,遵循SpaceX整体星座部署规划,2026年SpaceX计划将包含大量星链卫星在内的4400颗卫星轨道高度从550公里降至480公里,以提升太空安全,减少太空碎片风险,STARLINK-36686也将遵循相关轨道调整安排,服务于全球卫星互联网通信网络。
美国
(US)
| 数据来源 | 国际轨道数据 |
| 星历时间: | 2026-05-24T12:00:02+0800 1天前 查看轨道信息 |
| 半长轴: | 6796.911km |
| 偏心率: | 0.0001193 |
| 轨道倾角: | 53.163° |
| 近地点辐角 | 92.826° |
| 升交点赤经 | 43.663° |
| 平近点角 | 9.386° |
| 近地点: | 417.963km |
| 远地点: | 419.585km |
| 周期: | 92.945分钟 |
| 每日圈数: | 15.492997 |